TimeCDT,TemperatureF,Dew PointF,Humidity,Sea Level PressureIn,VisibilityMPH,Wind Direction,Wind SpeedMPH,Gust SpeedMPH,PrecipitationIn,Events,Conditions,WindDirDegrees,DateUTC
12:15 AM,42.8,35.6,76,30.22,10.0,Calm,Calm,-,N/A,,Clear,0,2011-10-01 05:15:00
12:35 AM,39.2,35.6,87,30.22,10.0,Calm,Calm,-,N/A,,Clear,0,2011-10-01 05:35:00
12:55 AM,42.8,35.6,76,30.22,10.0,Calm,Calm,-,N/A,,Clear,0,2011-10-01 05:55:00
1:15 AM,39.2,33.8,81,30.22,10.0,Calm,Calm,-,N/A,,Clear,0,2011-10-01 06:15:00
1:35 AM,41.0,35.6,81,30.22,10.0,Calm,Calm,-,N/A,,Clear,0,2011-10-01 06:35:00
1:55 AM,39.2,33.8,81,30.23,10.0,Calm,Calm,-,N/A,,Clear,0,2011-10-01 06:55:00
2:15 AM,37.4,33.8,87,30.23,10.0,Calm,Calm,-,N/A,,Clear,0,2011-10-01 07:15:00
2:35 AM,35.6,33.8,93,30.24,10.0,Calm,Calm,-,N/A,,Clear,0,2011-10-01 07:35:00
2:55 AM,35.6,32.0,87,30.24,10.0,Calm,Calm,-,N/A,,Clear,0,2011-10-01 07:55:00
3:15 AM,37.4,33.8,87,30.24,10.0,Calm,Calm,-,N/A,,Clear,0,2011-10-01 08:15:00
3:35 AM,35.6,32.0,87,30.23,10.0,Calm,Calm,-,N/A,,Clear,0,2011-10-01 08:35:00
3:55 AM,35.6,33.8,93,30.23,10.0,Calm,Calm,-,N/A,,Clear,0,2011-10-01 08:55:00
4:15 AM,37.4,33.8,87,30.23,10.0,Calm,Calm,-,N/A,,Clear,0,2011-10-01 09:15:00
4:35 AM,37.4,32.0,81,30.24,10.0,East,3.5,-,N/A,,Clear,100,2011-10-01 09:35:00
4:55 AM,35.6,32.0,87,30.24,10.0,Calm,Calm,-,N/A,,Clear,0,2011-10-01 09:55:00
5:15 AM,39.2,35.6,87,30.24,10.0,Calm,Calm,-,N/A,,Clear,0,2011-10-01 10:15:00
5:35 AM,39.2,35.6,87,30.25,10.0,Calm,Calm,-,N/A,,Clear,0,2011-10-01 10:35:00
5:55 AM,41.0,35.6,81,30.26,10.0,Calm,Calm,-,N/A,,Clear,0,2011-10-01 10:55:00
6:15 AM,37.4,35.6,93,30.26,10.0,Calm,Calm,-,N/A,,Clear,0,2011-10-01 11:15:00
6:35 AM,37.4,35.6,93,30.27,10.0,Calm,Calm,-,N/A,,Clear,0,2011-10-01 11:35:00
6:55 AM,35.6,32.0,87,30.27,10.0,Calm,Calm,-,N/A,,Clear,0,2011-10-01 11:55:00
7:15 AM,35.6,32.0,87,30.28,10.0,Calm,Calm,-,N/A,,Clear,0,2011-10-01 12:15:00
7:35 AM,35.6,32.0,87,30.28,10.0,Calm,Calm,-,N/A,,Clear,0,2011-10-01 12:35:00
7:55 AM,35.6,32.0,87,30.29,10.0,Calm,Calm,-,N/A,,Clear,0,2011-10-01 12:55:00
8:15 AM,37.4,33.8,87,30.29,10.0,Calm,Calm,-,N/A,,Clear,0,2011-10-01 13:15:00
8:35 AM,42.8,37.4,81,30.29,10.0,Calm,Calm,-,N/A,,Clear,0,2011-10-01 13:35:00
8:55 AM,44.6,37.4,76,30.30,10.0,North,-9999.0,-,N/A,,Clear,0,2011-10-01 13:55:00
9:15 AM,46.4,37.4,71,30.30,10.0,SSE,6.9,-,N/A,,Clear,150,2011-10-01 14:15:00
9:35 AM,50.0,37.4,62,30.30,10.0,SSE,9.2,-,N/A,,Clear,160,2011-10-01 14:35:00
9:55 AM,51.8,37.4,58,30.30,10.0,SSE,9.2,-,N/A,,Clear,160,2011-10-01 14:55:00
10:15 AM,53.6,37.4,54,30.31,10.0,SE,6.9,-,N/A,,Clear,140,2011-10-01 15:15:00
10:35 AM,55.4,39.2,54,30.31,10.0,North,-9999.0,-,N/A,,Clear,0,2011-10-01 15:35:00
10:55 AM,59.0,37.4,45,30.31,10.0,North,-9999.0,-,N/A,,Clear,0,2011-10-01 15:55:00
11:15 AM,60.8,37.4,42,30.30,10.0,North,-9999.0,-,N/A,,Clear,0,2011-10-01 16:15:00
11:35 AM,62.6,37.4,39,30.29,10.0,North,-9999.0,-,N/A,,Clear,0,2011-10-01 16:35:00
11:55 AM,64.4,35.6,34,30.29,10.0,South,6.9,-,N/A,,Clear,180,2011-10-01 16:55:00
12:15 PM,66.2,33.8,30,30.28,10.0,South,11.5,-,N/A,,Clear,170,2011-10-01 17:15:00
12:35 PM,68.0,32.0,26,30.27,10.0,SSW,8.1,17.3,N/A,,Clear,200,2011-10-01 17:35:00
1:15 PM,69.8,33.8,27,30.27,10.0,South,5.8,9.2,N/A,,Clear,190,2011-10-01 18:15:00
1:35 PM,69.8,33.8,27,30.26,10.0,South,9.2,-,N/A,,Clear,170,2011-10-01 18:35:00
1:55 PM,69.8,33.8,27,30.25,10.0,South,11.5,-,N/A,,Clear,170,2011-10-01 18:55:00
2:15 PM,71.6,33.8,25,30.24,10.0,South,9.2,-,N/A,,Clear,190,2011-10-01 19:15:00
2:35 PM,71.6,33.8,25,30.22,10.0,SSE,12.7,17.3,N/A,,Clear,150,2011-10-01 19:35:00
2:55 PM,71.6,33.8,25,30.22,10.0,SSE,10.4,-,N/A,,Clear,160,2011-10-01 19:55:00
3:15 PM,73.4,33.8,23,30.22,10.0,SSE,15.0,18.4,N/A,,Clear,150,2011-10-01 20:15:00
3:35 PM,73.4,33.8,23,30.22,10.0,SSE,9.2,17.3,N/A,,Clear,160,2011-10-01 20:35:00
3:55 PM,73.4,33.8,23,30.21,10.0,South,10.4,16.1,N/A,,Clear,180,2011-10-01 20:55:00
4:15 PM,73.4,32.0,22,30.20,10.0,SSE,11.5,-,N/A,,Clear,150,2011-10-01 21:15:00
4:35 PM,73.4,32.0,22,30.20,10.0,SE,11.5,-,N/A,,Clear,140,2011-10-01 21:35:00
4:55 PM,71.6,32.0,23,30.19,10.0,SSE,10.4,-,N/A,,Clear,150,2011-10-01 21:55:00
5:15 PM,71.6,32.0,23,30.19,10.0,SSE,9.2,-,N/A,,Clear,150,2011-10-01 22:15:00
5:35 PM,71.6,32.0,23,30.19,10.0,SSE,10.4,-,N/A,,Clear,150,2011-10-01 22:35:00
5:55 PM,71.6,32.0,23,30.19,10.0,SSE,10.4,-,N/A,,Clear,150,2011-10-01 22:55:00
6:15 PM,69.8,33.8,27,30.19,10.0,SSE,6.9,-,N/A,,Clear,150,2011-10-01 23:15:00
6:35 PM,68.0,33.8,28,30.19,10.0,SE,5.8,-,N/A,,Clear,140,2011-10-01 23:35:00
6:55 PM,64.4,35.6,34,30.19,10.0,SE,8.1,-,N/A,,Clear,140,2011-10-01 23:55:00
7:15 PM,60.8,37.4,42,30.18,10.0,SE,6.9,-,N/A,,Clear,140,2011-10-02 00:15:00
7:35 PM,57.2,37.4,48,30.19,10.0,SE,8.1,-,N/A,,Clear,140,2011-10-02 00:35:00
7:55 PM,55.4,37.4,51,30.18,10.0,SE,8.1,-,N/A,,Clear,140,2011-10-02 00:55:00
8:15 PM,55.4,37.4,51,30.18,10.0,SSE,5.8,-,N/A,,Clear,150,2011-10-02 01:15:00
8:35 PM,53.6,37.4,54,30.19,10.0,SSE,6.9,-,N/A,,Clear,150,2011-10-02 01:35:00
8:55 PM,51.8,37.4,58,30.19,10.0,SSE,6.9,-,N/A,,Clear,150,2011-10-02 01:55:00
9:15 PM,50.0,37.4,62,30.19,10.0,SSE,5.8,-,N/A,,Clear,160,2011-10-02 02:15:00
9:35 PM,50.0,37.4,62,30.20,10.0,SSE,5.8,-,N/A,,Clear,150,2011-10-02 02:35:00
9:55 PM,50.0,37.4,62,30.20,10.0,SSE,4.6,-,N/A,,Clear,150,2011-10-02 02:55:00
10:15 PM,48.2,37.4,66,30.20,10.0,SE,6.9,-,N/A,,Clear,140,2011-10-02 03:15:00
10:35 PM,46.4,35.6,66,30.20,10.0,SSE,5.8,-,N/A,,Clear,150,2011-10-02 03:35:00
10:55 PM,46.4,35.6,66,30.20,10.0,SSE,3.5,-,N/A,,Clear,160,2011-10-02 03:55:00
11:15 PM,46.4,35.6,66,30.20,10.0,SSE,3.5,-,N/A,,Clear,150,2011-10-02 04:15:00
11:35 PM,46.4,35.6,66,30.21,10.0,SSE,5.8,-,N/A,,Clear,150,2011-10-02 04:35:00
11:55 PM,46.4,35.6,66,30.21,10.0,Calm,Calm,-,N/A,,Clear,0,2011-10-02 04:55:00